Regional Weather Roundup
Issued by NWS

Home | Current Version | Previous Version | Text Only | Print | Product List | Glossary On
Versions: 1 2 3 4 5 6 7 8 9 10 11 12 13 14 15 16 17 18 19 20 21 22 23 24 25 26 27 28 29 30 31 32 33 34 35 36 37 38 39 40 41 42 43 44 45 46 47 48 49 50
000
ASUS43 KLMK 201502
RWRKY
KENTUCKY REGIONAL WEATHER ROUNDUP
NATIONAL WEATHER SERVICE LOUISVILLE KY
1000 AM EST FRI JAN 20 2017

NOTE "FAIR" INDICATES FEW OR NO CLOUDS BELOW 12,000 FEET
WITH NO SIGNIFICANT WEATHER AND/OR OBSTRUCTIONS TO VISIBILITY.

KYZ001>023-026-027-061>063-070>075-201600-
WESTERN AND SOUTH CENTRAL KENTUCKY

CITY           SKY/WX    TMP DP  RH WIND       PRES   REMARKS
PADUCAH        PTSUNNY   55  50  83 S5        29.72R
HENDERSON      CLOUDY    54  48  82 SW8       29.72S
OWENSBORO      PTSUNNY   57  51  80 SW20      29.74R
HOPKINSVILLE   CLOUDY    57  57 100 S8        29.77R
BOWLING GREEN  PTSUNNY   59  54  83 SW9       29.79R
GLASGOW        NOT AVBL
$$

KYZ024-025-028>034-038-045-046-053-201600-
NORTH CENTRAL KENTUCKY

CITY           SKY/WX    TMP DP  RH WIND       PRES   REMARKS
LOUISVILLE/SDF CLOUDY    58  53  84 SW9       29.74R
LOUISVILLE/LOU CLOUDY    58  53  84 SW10      29.75R
FORT KNOX      CLOUDY    56  55  98 S9        29.74R
$$

KYZ035>037-039>044-047>052-055>060-089>105-201600-
NORTHEAST KENTUCKY

CITY           SKY/WX    TMP DP  RH WIND       PRES   REMARKS
LEXINGTON      LGT RAIN  56  53  90 SW15      29.78R
COVINGTON      CLOUDY    55  53  93 SW8       29.71R
FRANKFORT      CLOUDY    57  52  83 SW13      29.75R
$$

KYZ054-064>069-076>088-106>120-201600-
SOUTHEAST KENTUCKY

CITY           SKY/WX    TMP DP  RH WIND       PRES   REMARKS
JACKSON        CLOUDY    56  52  86 VRB5      29.81R
LONDON         CLOUDY    56  52  86 SW6       29.82R
SOMERSET       CLOUDY    54  54 100 W5        29.83R
MIDDLESBORO    PTSUNNY   55  53  92 CALM      29.85R
MONTICELLO     CLOUDY    58  54  86 SW16      29.84R
$$




USA.gov is the U.S. government's official web portal to all federal, state and local government web resources and services.